This demonstration page uses our WeatherBlox Daily Observations layout. Learn more.

Left ArrowRight Arrow

34.74481, -87.66753

Hourly Observations for May 30, 2021

Temp ( °F °C ) Dew Point ( °F °C ) Humidity (%) Winds ( mph kmh ) Pressure ( in mb ) Visibility ( mi km ) Precip ( " mm )
12:53 am 00:53 Cloudy 58 14.4 46 7.8 65 65 ENE 10 17 30.13 1020 10 16 0.00 0.00
1:53 am 01:53 Cloudy 57 13.9 45 7.2 64 64 N 7 11 30.13 1020 10 16 0.00 0.00
2:53 am 02:53 Cloudy 57 13.9 45 7.2 64 64 NE 12 19 30.12 1020 10 16 0.00 0.00
3:53 am 03:53 Partly Cloudy 55 12.8 43 6.1 64 64 NE 7 11 30.13 1020 10 16 0.00 0.00
4:53 am 04:53 Mostly Clear 53 11.7 44 6.7 72 72 NE 5 7 30.14 1021 10 16 0.00 0.00
5:16 am 05:16 Mostly Cloudy 54 12.2 46 7.8 75 75 NE 5 7 30.15 1021 10 16 0.00 0.00
5:40 am 05:40 Mostly Sunny 54 12.2 45 7.2 72 72 ENE 6 9 30.15 1021 10 16 0.00 0.00
5:53 am 05:53 Mostly Sunny 53 11.7 45 7.2 74 74 NE 6 9 30.15 1021 10 16 0.00 0.00
6:53 am 06:53 Mostly Sunny 56 13.3 47 8.3 72 72 VRB 5 7 30.17 1022 10 16 0.00 0.00
7:53 am 07:53 Mostly Cloudy 56 13.3 46 7.8 70 70 NE 13 20 30.19 1022 10 16 0.00 0.00
8:53 am 08:53 Cloudy 58 14.4 46 7.8 65 65 NE 9 15 30.19 1022 10 16 0.00 0.00
9:37 am 09:37 Partly Cloudy 62 16.7 46 7.8 56 56 NE 8 13 30.19 1022 10 16 0.00 0.00
9:53 am 09:53 Mostly Sunny 63 17.2 47 8.3 56 56 E 8 13 30.20 1023 10 16 0.00 0.00
10:53 am 10:53 Partly Cloudy 66 18.9 48 8.9 52 52 NNE 9 15 30.20 1023 10 16 0.00 0.00
11:53 am 11:53 Sunny 68 20 47 8.3 47 47 NNE 9 15 30.19 1023 10 16 0.00 0.00
12:53 pm 12:53 Sunny 71 21.7 47 8.3 42 42 E 8 13 30.18 1022 10 16 0.00 0.00
1:53 pm 13:53 Sunny 73 22.8 48 8.9 41 41 ENE 9 15 30.17 1022 10 16 0.00 0.00
2:53 pm 14:53 Sunny 74 23.3 47 8.3 38 38 E 6 9 30.16 1021 10 16 0.00 0.00
3:53 pm 15:53 Sunny 75 23.9 47 8.3 37 37 E 6 9 30.15 1021 10 16 0.00 0.00
4:53 pm 16:53 Sunny 77 25 48 8.9 36 36 VRB 5 7 30.15 1021 10 16 0.00 0.00
5:53 pm 17:53 Sunny 76 24.4 48 8.9 37 37 NNE 5 7 30.14 1021 10 16 0.00 0.00
6:53 pm 18:53 Sunny 74 23.3 47 8.3 38 38 ENE 6 9 30.15 1021 10 16 0.00 0.00
7:53 pm 19:53 Sunny 69 20.6 50 10 51 51 E 3 6 30.16 1022 10 16 0.00 0.00
8:53 pm 20:53 Clear 65 18.3 50 10 59 59 NE 5 7 30.18 1022 10 16 0.00 0.00
9:53 pm 21:53 Clear 61 16.1 51 10.6 70 70 NE 5 7 30.20 1023 10 16 0.00 0.00
10:53 pm 22:53 Clear 60 15.6 51 10.6 72 72 NE 5 7 30.21 1023 10 16 0.00 0.00
11:53 pm 23:53 Clear 61 16.1 49 9.4 65 65 ENE 6 9 30.20 1023 10 16 0.00 0.00

Powered by AerisWeather